Regional Weather Roundup
Issued by NWS Charleston, SC

Home | Current Version | Previous Version | Text Only | Print | Product List | Glossary On
Versions: 1 2 3 4 5 6 7 8 9 10 11 12 13 14 15 16 17 18 19 20 21 22 23 24 25 26 27 28 29 30 31 32 33 34 35 36 37 38 39 40 41 42 43 44 45 46 47 48 49 50
000
ASUS42 KCHS 240625
RWRCHS

REGIONAL WEATHER ROUNDUP
NATIONAL WEATHER SERVICE CHARLESTON SC
200 AM EDT THU JUL 24 2014

NOTE: "FAIR" INDICATES FEW OR NO CLOUDS BELOW 12,000 FEET WITH NO
SIGNIFICANT WEATHER AND/OR OBSTRUCTIONS TO VISIBILITY.

NOT ALL STATIONS ARE QUALITY CONTROLLED BY THE NATIONAL
WEATHER SERVICE. USE DATA WITH CAUTION...ESPECIALLY
DEWPOINT OBSERVATIONS.

SCZ027-030-031-034>040-042>050-240700-
...SOUTH CAROLINA...

CITY           SKY/WX    TMP DP  RH WIND       PRES   REMARKS
N CHARLESTON   PTCLDY    78  75  90 S6        29.98F
6HR MIN TEMP:  78; 6HR MAX TEMP:  84;

WATERFRONT PRK   N/A     82 N/A N/A SW6         N/A
FORT JOHNSON   NOT AVBL
MOUNT PLEASANT FAIR      81  79  94 SW6       29.98F
JOHNS ISLAND   CLEAR     82  72  69 SW6       29.98F
PINOPOLIS        N/A     81  75  83 SW7       29.89F
MONCKS CORNER    N/A     79  79 100 SW5       29.97F
SUMMERVILLE    FAIR      77  77 100 CALM      29.99F
BEAUFORT MCAS  PTCLDY    81  77  88 W3        29.99S
6HR MIN TEMP:  81; 6HR MAX TEMP:  85;

BEAUFORT ARPT  MOCLDY    81  79  94 S3        29.98F
HILTON HEAD IS PTCLDY    82  79  89 S7        30.00S HX  93
GEORGETOWN     NOT AVBL
WALTERBORO     MOCLDY    79 N/A N/A SW5       29.99S
ORANGEBURG     PTCLDY    77  74  90 S6        29.98S
6HR MIN TEMP:  77; 6HR MAX TEMP:  86;

BARNWELL       FAIR      79  75  89 SW6       29.98F
AIKEN          FAIR      73  73 100 CALM      30.01F
MANNING        FAIR      81 N/A N/A SW8       29.97F
KINGSTREE      NOT AVBL
COLUMBIA       CLEAR     80  72  76 SW3       29.95F
6HR MIN TEMP:  80; 6HR MAX TEMP:  89;

SUMTER         CLEAR     77  76  94 SW8       29.95F
6HR MIN TEMP:  77; 6HR MAX TEMP:  86;

FLORENCE       CLEAR     78  74  87 SW8       29.96S
6HR MIN TEMP:  78; 6HR MAX TEMP:  85;

MYRTLE BEACH   PTCLDY    79  73  83 SW6       29.96F
N MYRTLE BEACH PTCLDY    80  74  81 SW9       29.96F
6HR MIN TEMP:  80; 6HR MAX TEMP:  83;


$$

GAZ063-065-086>088-099>101-113>116-118-119-134-136>141-150-240700-
...GEORGIA...

CITY           SKY/WX    TMP DP  RH WIND       PRES   REMARKS
SAVANNAH ARPT  PTCLDY    80  76  87 SW6       30.00S
6HR MIN TEMP:  80; 6HR MAX TEMP:  85;

HUNTER AAF     PTCLDY    80  78  93 SW2       29.98S
6HR MIN TEMP:  80; 6HR MAX TEMP:  84;

FORT STEWART   CLEAR     79  75  88 SW6       29.99F
6HR MIN TEMP:  78; 6HR MAX TEMP:  85;

STATESBORO     NOT AVBL
SYLVANIA       CLEAR     78  78  99 CALM      30.00S
CLAXTON        FAIR      79  79 100 CALM      30.00S
THOMSON        CLEAR     78  77  96 SW3       30.01F
AUGUSTA-BUSH   CLEAR     73  71  93 E3        29.96F
6HR MIN TEMP:  73; 6HR MAX TEMP:  85;

AUGUSTA-DANIEL CLEAR     79  71  76 SW3       29.98F
SWAINSBORO     FAIR      79  79 100 W3        30.00S
VIDALIA          N/A     73  72  94 S3        30.00F
ALMA           PTCLDY    76  71  85 CALM      30.00F
6HR MIN TEMP:  76; 6HR MAX TEMP:  89;

WAYCROSS       CLEAR     79  76  89 W3        30.01F
JESUP          NOT AVBL
BRUNSWICK      CLEAR     81  73  78 CALM      30.01S
SAINT SIMONS   CLEAR     81  76  84 SW13      30.00S
6HR MIN TEMP:  81; 6HR MAX TEMP:  84;


$$

SCZ027-028-034-036>038-045-046-048>050-GAZ119-141-240700-
...LAKE AND SUPPLEMENTAL COASTAL OBSERVATIONS...

STATION/POSITION TIME  TEMP    WIND        PRES    WAVE   SWELL
                       AIR SEA DIR/SP/G            HT/PER HT/PER/DIR
                 (UTC) (F)     (DEG/KT/KT) (MB)    (FT/S) (FT/S/D)
UPR LAKE MARION  NOT AVBL
WINYAH BAY       0500   79     230/  6     1015.0S
LAKE MURRAY      0500   82     250/  7/ 11 1013.9S
ACE BASIN NERRS  0500   79        CALM     1016.0S
FORT PULASKI     0600   81     230/  7/ 10 1016.0S
SAPELO ISLAND    0500   82     200/  9     1016.0S

$$

ANZ835-935-AMZ111-154-330-350-352-354-374-450-454-472-240700-
...C-MAN AND BUOY OBSERVATIONS...

STATION/POSITION TIME  TEMP    WIND        PRES    WAVE   SWELL
                       AIR SEA DIR/SP/G            HT/PER HT/PER/DIR
                 (UTC) (F)     (DEG/KT/KT) (MB)    (FT/S) (FT/S/D)
FOLLY BEACH CMAN 0600   82     220/ 12/ 16 1015.8F
BUOY 41004       0600   82 82  220/ 14/ 16 1014.8F   3/ 7   2/ 7
BUOY 41008       0600   84 84  210/ 17/ 21 1015.5F   3/ 4   2/110/ 7
5E ST. MARYS GA  0600      84                N/A     3/ 4
FRYING PAN BUOY  NOT AVBL
BUOY 41025       0600          VRB 17/ 19  1013.2F   5/ 4   2/160/ 8
CAPE LOOKOUT NC  0600   80     240/ 11/ 14 1013.8F
BUOY 41002       0519   82 82  220/ 17/ 21 1017.3F   5/ 5   2/140/ 8
BUOY 41010       0600   83 83  190/ 14/ 16 1017.3F   3/ 8   2/130/ 8
BUOY 41012       NOT AVBL
ST AUGUSTINE FL  0600   79     230/  5/  6 1017.2S
CAPERS NEARSHORE 0500   82     250/ 16/ 19   N/A
FRIPP NEARSHORE  NOT AVBL


$$



USA.gov is the U.S. government's official web portal to all federal, state and local government web resources and services.